Location: Fort Wayne
(41.1310°N, 85.1290°W)
Time: 04:29:24
(UTC-04:00)

Gbstr 26 Del rocket - Visible Passes

Search period start: 22 May 2015 00:00
Search period end: 01 June 2015 00:00
Orbit: 493 x 1271 km, 51.8° (Epoch: 20 May)

Date Brightness Start Highest point End Pass type
(mag) Time Alt. Az. Time Alt. Az. Time Alt. Az.
22 May 5.2 00:23:38 10° WNW 00:30:18 35° SW 00:31:02 34° SW visible
22 May 4.4 22:32:29 10° NW 22:39:29 90° NNE 22:44:55 23° SE visible
23 May 5.5 00:20:26 10° WNW 00:26:41 29° SW 00:27:31 28° SW visible
23 May 4.4 22:29:02 10° NW 22:35:59 79° SW 22:41:27 22° SE visible
24 May 5.7 00:17:21 10° WNW 00:23:04 23° SW 00:24:04 22° SW visible
24 May 4.5 22:25:35 10° WNW 22:32:27 67° SW 22:38:03 21° SE visible
25 May 6.0 00:14:28 10° W 00:19:26 18° SW 00:20:40 17° SW visible
25 May 4.7 22:22:09 10° WNW 22:28:54 56° SW 22:34:43 18° SSE visible
26 May 6.2 00:11:56 10° W 00:15:46 14° SW 00:17:21 13° SW visible
26 May 5.0 22:18:46 10° WNW 22:25:20 47° SW 22:31:28 15° SSE visible
27 May 6.5 00:10:43 10° WSW 00:12:07 10° WSW 00:12:55 10° SW visible
27 May 5.2 22:15:26 10° WNW 22:21:45 38° SW 22:28:17 12° SSE visible
28 May 5.5 22:12:10 10° WNW 22:18:09 31° SW 22:24:46 10° S visible
29 May 5.8 22:08:59 10° WNW 22:14:32 25° SW 22:20:31 10° S visible
30 May 6.1 22:05:58 10° W 22:10:55 20° SW 22:16:02 10° S visible
31 May 6.4 22:03:13 10° W 22:07:16 16° SW 22:11:15 10° SSW visible
